Wind_Speed
4 4 4 4 3 3 4 4 3 3 3 3 3 4 5 6 7 7 7 8 8 9 10 11 12 12 13 13 14 14 15 16 16 17 17 18 18 18 18 19 19 19 20 20 20 21 21 21 22
3 3 3 2 2 3 3 3 3 3 3 3 3 5 5 5 6 7 7 8 8 9 10 11 12 12 13 13 14 15 15 16 16 17 17 18 18 19 19 20 20 20 21 21 21 22 22 22 23
3 2 3 3 3 3 3 3 3 3 3 3 4 5 6 6 7 7 8 8 9 9 10 11 12 12 13 14 15 15 15 16 16 17 17 18 18 19 19 20 20 20 21 21 22 22 22 23 23
3 4 3 3 3 3 3 3 3 4 4 4 5 5 6 7 7 8 9 9 10 10 11 12 13 13 14 15 15 16 16 17 17 17 18 18 19 19 20 20 21 21 22 22 22 22 22 23 23
5 5 5 4 4 4 5 5 5 5 5 6 7 6 7 8 8 9 10 10 11 11 12 13 13 14 15 15 16 16 17 17 18 19 19 19 19 20 20 21 21 22 22 22 22 23 23 24 24
7 7 7 6 5 6 6 7 7 8 8 8 8 8 8 9 9 10 11 11 12 12 13 13 14 14 15 16 16 17 17 17 18 19 19 20 20 21 21 21 22 22 23 23 23 24 24 25 25
9 9 9 8 8 8 8 9 9 10 10 10 10 10 9 10 10 11 12 12 13 13 14 14 15 15 16 17 17 17 18 18 19 19 20 20 21 21 21 22 22 23 23 24 24 25 25 25 26
11 11 11 11 10 10 10 11 11 12 12 12 12 12 10 11 12 12 13 13 14 14 15 15 16 16 17 17 18 18 18 19 19 20 20 21 21 22 22 23 23 24 24 25 25 25 26 27 27
14 13 13 12 12 12 12 12 13 14 14 14 14 14 13 13 14 14 14 15 15 15 16 16 16 17 18 18 19 19 19 20 20 21 21 21 21 22 23 24 24 24 25 25 26 26 27 27 28
16 16 15 15 15 14 14 14 15 15 16 16 16 15 15 15 16 16 16 16 17 17 17 17 18 18 18 19 19 20 20 21 21 22 22 22 23 23 23 24 25 25 25 26 26 27 27 28 28
19 18 17 17 17 17 17 16 17 17 17 17 17 17 18 17 17 18 17 17 18 18 19 19 19 19 19 19 20 20 21 21 22 22 22 23 23 24 24 25 25 26 26 26 27 27 28 28 28
21 20 20 19 19 19 19 18 18 18 19 19 19 19 19 19 19 19 19 19 19 20 20 20 20 20 21 21 21 21 21 22 22 23 23 24 24 25 25 25 26 26 27 27 28 28 29 29 29
23 22 22 21 21 21 21 20 20 20 20 20 20 21 21 21 21 21 21 21 21 21 21 21 21 21 22 22 22 22 22 23 23 24 24 25 25 26 26 26 27 27 27 28 28 29 29 30 30
24 24 24 23 23 22 22 22 22 22 22 21 22 22 22 22 22 22 22 23 22 22 22 23 23 23 23 23 23 23 23 24 24 25 25 25 26 26 26 27 27 28 28 29 29 30 30 30 31
26 26 26 25 24 24 24 24 24 23 23 23 23 23 23 23 23 23 24 24 24 23 23 24 24 24 24 24 24 24 24 25 25 25 26 26 26 27 27 27 28 29 29 30 30 31 31 31 32
28 28 28 26 26 26 25 24 26 24 24 24 24 24 24 24 24 24 25 25 25 25 25 25 25 26 26 25 26 26 26 25 26 26 27 27 28 28 28 28 29 30 30 31 31 32 32 33 33
29 28 28 27 27 27 26 25 27 26 25 25 25 25 25 25 25 25 25 26 26 26 26 26 26 27 27 27 26 26 27 27 27 27 28 28 29 29 30 30 30 31 31 32 32 33 34 34 35
28 28 28 28 28 27 27 26 27 27 27 26 27 27 26 26 26 26 26 27 27 27 27 27 27 27 27 28 27 28 28 28 28 29 29 29 30 30 31 31 31 32 33 33 34 34 35 36 36
29 29 28 28 28 28 28 27 28 28 28 28 28 28 27 27 27 27 27 27 28 28 28 28 28 28 28 28 28 29 29 29 30 30 30 30 31 31 32 33 33 34 34 35 36 36 37 38 38
29 29 28 28 29 29 29 28 28 29 29 29 29 29 28 29 29 28 29 29 29 29 29 29 29 29 29 29 30 30 30 30 31 31 32 32 32 33 33 34 35 35 36 37 37 38 39 40 41
30 29 29 29 29 30 30 28 28 28 29 29 30 30 30 30 30 30 30 30 30 30 30 30 30 30 30 31 31 31 32 32 32 32 33 33 34 34 35 35 36 37 38 39 39 40 41 42 42
30 29 29 30 30 29 31 30 26 28 28 29 30 30 30 31 31 31 30 31 30 30 31 31 31 31 31 32 32 33 33 33 33 34 34 35 35 35 36 36 37 39 40 40 41 42 43 43 44
30 30 30 31 31 31 30 32 27 28 28 29 30 30 31 31 31 31 31 31 31 31 31 31 32 32 32 33 33 33 34 34 35 35 36 36 36 37 37 38 39 40 41 42 43 44 45 45 46
31 31 32 32 33 33 30 32 30 29 28 29 30 30 30 31 31 31 31 31 31 31 31 32 32 32 33 33 34 34 35 35 36 36 37 37 37 38 39 39 40 41 43 44 45 46 46 47 48
32 32 32 33 33 34 32 32 31 29 28 29 30 30 30 30 31 31 31 31 31 31 32 32 33 33 34 34 34 35 36 36 37 37 38 38 39 39 40 41 42 44 45 46 47 47 48 49 50
33 33 33 34 34 34 33 32 31 30 28 29 30 30 30 30 31 31 32 32 32 32 33 33 34 34 35 35 36 36 37 37 38 38 39 40 40 41 42 43 44 46 47 48 49 49 49 50 51
33 32 33 35 35 35 34 33 32 31 29 29 30 30 30 31 31 32 32 32 32 33 33 34 35 35 36 36 37 37 38 39 39 40 40 41 41 43 44 45 46 47 49 50 50 51 51 52 54
34 33 33 34 35 36 35 33 33 32 31 30 30 31 31 32 32 32 33 33 33 34 35 35 36 36 37 37 38 38 39 39 40 41 41 42 43 44 46 47 48 49 50 51 51 52 53 55 56
34 34 34 35 36 36 36 34 33 33 33 32 32 32 33 33 33 33 34 34 34 35 36 36 37 37 37 38 38 39 39 40 40 41 42 44 45 46 47 48 49 50 51 52 53 54 56 57 58
35 33 34 35 35 35 36 35 33 33 33 34 34 35 35 35 35 35 35 35 35 36 37 37 37 37 38 39 39 39 40 40 41 42 43 44 46 47 48 49 50 52 53 54 55 57 58 59 60
Wind_Direction
42 43 45 51 53 56 54 49 43 33 16 360 335 318 316 320 317 312 303 296 292 287 285 285 286 285 285 286 287 288 289 289 289 290 290 290 290 290 290 289 289 289 288 287 286 285 283 283 282
21 20 24 28 6 47 49 32 27 25 11 354 335 326 329 327 320 316 310 305 300 294 291 290 290 291 290 290 290 290 291 291 291 290 290 290 291 290 290 290 290 289 288 287 286 285 284 283 282
339 341 350 345 353 17 22 8 4 355 344 334 324 323 326 326 321 315 310 306 303 298 295 294 294 293 293 293 293 293 292 292 292 292 292 291 291 291 290 289 289 289 288 287 285 284 283 282 281
299 302 304 314 338 342 336 335 334 325 317 314 314 318 319 321 317 314 311 308 304 301 298 296 296 295 294 294 293 293 292 292 292 293 293 293 292 291 290 289 289 289 289 288 286 284 283 283 282
278 283 288 300 313 311 311 312 311 311 307 306 308 314 313 315 312 311 310 308 305 302 299 298 297 296 296 296 296 295 294 294 293 293 293 292 293 292 291 290 290 290 289 288 287 285 284 283 283
272 278 281 287 290 293 296 298 299 300 301 302 304 307 308 309 309 309 309 308 306 303 301 299 298 297 296 296 297 296 296 295 295 295 294 293 293 292 291 290 290 290 290 289 288 287 286 285 283
267 274 279 282 282 284 287 289 292 295 297 298 299 301 306 304 305 306 307 308 307 306 303 301 300 300 299 298 297 297 297 297 297 296 296 295 294 293 291 291 291 290 290 289 288 287 286 285 285
262 270 274 277 279 280 284 286 289 291 293 294 295 298 301 299 301 302 303 304 305 305 303 301 302 302 302 300 299 298 298 298 297 297 297 296 295 294 293 293 292 291 291 289 288 287 287 286 285
259 265 270 273 276 279 283 285 286 289 290 291 293 296 296 296 297 298 299 301 302 303 303 301 301 302 302 300 299 299 299 299 299 298 298 297 296 295 294 294 293 293 292 291 290 289 288 288 287
258 263 267 271 274 277 281 284 285 287 288 289 291 294 295 295 296 296 296 298 300 301 302 301 301 302 302 301 300 299 300 300 300 299 299 298 297 296 295 294 294 293 293 292 291 291 290 289 288
258 262 266 269 272 275 278 281 284 285 286 287 288 291 294 295 295 295 295 296 299 300 300 300 300 301 302 302 301 301 301 301 300 299 299 300 299 297 296 295 294 294 294 293 293 292 292 291 290
257 261 263 266 270 273 276 279 281 283 284 285 287 289 291 293 294 294 294 294 296 298 299 299 300 300 300 301 302 301 300 300 300 299 299 299 299 298 297 296 295 295 295 295 294 293 292 292 291
257 260 262 265 268 272 274 277 279 282 283 285 286 288 290 290 290 291 292 293 294 295 296 297 299 299 300 300 300 300 299 300 300 300 300 300 299 299 298 297 296 296 296 296 295 294 293 293 292
257 259 262 264 268 271 274 276 277 279 281 283 285 287 288 289 289 290 291 292 294 294 295 296 297 297 298 299 299 299 299 300 300 300 300 300 300 300 298 297 297 297 297 297 296 296 295 294 294
257 260 262 264 267 270 273 275 276 278 279 281 284 286 287 287 288 289 290 291 292 293 293 295 295 295 296 296 297 298 298 298 299 299 300 300 300 300 299 298 298 297 297 297 297 297 296 296 295
257 260 262 265 267 270 272 274 276 277 278 281 283 285 286 287 288 289 290 290 291 292 292 293 294 294 293 294 295 296 296 296 297 297 298 299 299 299 299 299 299 298 298 298 298 298 297 297 296
257 260 264 267 268 270 272 274 276 278 279 280 282 285 286 288 289 289 290 290 290 291 292 292 292 292 292 293 293 295 295 295 296 296 297 297 298 298 299 299 299 299 298 298 298 298 297 297 297
260 262 265 268 270 271 273 275 277 279 280 281 282 285 286 288 289 290 289 289 289 290 291 291 291 291 292 292 292 293 294 294 294 295 296 297 297 297 297 297 298 298 299 299 298 298 298 298 297
260 263 264 267 270 272 274 275 276 279 281 282 283 285 286 287 289 290 289 288 289 290 290 290 289 290 291 291 291 291 292 293 294 294 295 296 296 296 296 297 297 298 298 299 299 298 298 298 298
259 261 264 267 271 273 273 275 277 279 281 282 283 284 286 288 289 290 290 289 289 289 289 289 289 288 289 289 290 291 291 292 293 293 293 294 295 296 296 297 298 298 298 299 299 299 299 298 298
259 261 264 267 270 273 274 275 278 279 281 282 284 285 287 288 289 290 290 289 289 289 288 288 288 288 288 288 289 290 290 292 292 293 293 294 295 296 297 297 297 298 298 299 299 299 299 299 299
258 262 265 267 269 272 277 277 277 280 281 283 285 286 287 289 290 291 291 290 290 289 288 288 288 288 287 288 288 289 290 291 292 293 293 294 295 296 296 297 297 298 298 299 299 299 299 299 299
259 262 265 268 270 272 276 280 281 281 282 284 285 286 287 289 291 292 292 291 290 289 288 288 288 288 287 288 288 289 289 290 291 292 293 294 294 295 296 297 297 298 299 299 300 300 300 300 300
259 262 265 268 271 273 275 279 283 284 286 286 286 287 289 290 291 292 292 291 291 290 289 288 288 288 288 288 288 289 289 290 291 292 292 293 294 295 296 296 297 298 299 299 300 301 301 301 301
258 262 265 268 270 273 277 279 282 286 287 287 288 288 289 290 291 292 292 292 291 290 289 288 288 288 288 288 288 288 289 290 290 291 292 293 293 294 295 296 297 298 298 299 300 300 300 301 301
258 261 265 269 273 276 279 280 283 286 287 287 287 288 289 291 292 292 293 292 291 290 289 288 288 288 288 288 288 289 289 290 290 291 292 293 294 294 295 296 297 298 298 299 300 300 300 301 301
258 261 265 268 271 274 277 281 283 285 287 287 287 288 289 290 292 293 294 293 292 290 289 289 289 288 289 289 289 289 289 290 291 291 292 292 293 294 296 296 297 298 299 299 300 300 301 301 302
258 261 262 265 270 274 277 280 284 287 288 288 288 289 290 291 292 293 293 293 292 291 290 290 290 289 289 289 289 289 290 290 291 291 292 292 293 295 296 297 298 299 299 300 300 300 301 301 302
257 260 263 265 268 272 277 279 284 287 289 289 289 289 290 292 294 294 294 293 291 291 291 291 290 290 290 290 290 290 291 291 291 292 292 293 294 295 296 297 298 299 300 300 300 301 301 302 303
257 260 263 265 268 271 274 278 283 285 287 289 290 291 293 294 294 294 294 293 292 292 291 291 290 290 290 290 290 290 290 291 291 292 293 293 295 295 296 297 298 299 300 300 301 302 302 303 303
Height
5871 5870 5870 5871 5871 5870 5869 5869 5869 5869 5869 5869 5868 5868 5868 5869 5870 5872 5870 5869 5869 5870 5870 5870 5870 5870 5870 5870 5870 5870 5869 5869 5868 5868 5867 5867 5866 5866 5865 5865 5864 5864 5863 5863 5862 5862 5861 5861 5860
5871 5871 5871 5871 5871 5870 5870 5869 5869 5869 5869 5869 5868 5868 5868 5869 5868 5868 5868 5868 5868 5868 5868 5868 5868 5868 5868 5868 5867 5867 5867 5866 5866 5865 5865 5864 5863 5863 5862 5862 5861 5860 5860 5859 5858 5858 5857 5857 5856
5871 5871 5872 5871 5870 5870 5870 5870 5870 5869 5869 5869 5869 5868 5868 5868 5868 5868 5867 5867 5867 5867 5867 5867 5866 5866 5866 5865 5865 5864 5864 5863 5863 5862 5862 5861 5860 5859 5859 5858 5857 5857 5856 5855 5855 5854 5853 5853 5852
5871 5872 5872 5872 5870 5870 5870 5870 5870 5869 5869 5869 5868 5868 5868 5868 5867 5867 5866 5866 5866 5866 5865 5865 5864 5864 5864 5863 5863 5862 5861 5861 5860 5859 5859 5858 5857 5856 5855 5855 5854 5853 5852 5852 5851 5850 5849 5848 5848
5871 5871 5871 5870 5870 5870 5869 5869 5869 5869 5869 5868 5868 5868 5867 5867 5866 5866 5865 5865 5865 5864 5864 5863 5863 5862 5861 5861 5860 5859 5859 5858 5857 5856 5855 5854 5854 5853 5852 5851 5850 5849 5848 5848 5847 5846 5845 5844 5843
5870 5870 5870 5869 5869 5869 5869 5869 5869 5868 5868 5868 5867 5867 5867 5866 5865 5865 5864 5863 5863 5863 5862 5861 5860 5860 5859 5858 5857 5857 5856 5855 5854 5853 5852 5851 5850 5849 5848 5847 5846 5845 5844 5843 5843 5842 5841 5840 5839
5869 5869 5868 5868 5868 5868 5868 5868 5868 5867 5867 5867 5866 5866 5866 5865 5864 5863 5862 5862 5861 5861 5860 5859 5858 5857 5856 5855 5854 5854 5852 5852 5850 5849 5848 5847 5846 5845 5845 5844 5842 5841 5840 5839 5838 5837 5836 5835 5834
5866 5868 5867 5867 5866 5867 5867 5866 5866 5866 5866 5865 5865 5864 5865 5864 5863 5862 5861 5860 5859 5858 5858 5857 5856 5855 5854 5853 5851 5850 5849 5848 5847 5846 5845 5844 5843 5842 5840 5839 5838 5837 5836 5835 5834 5832 5831 5830 5829
5864 5866 5865 5865 5865 5865 5865 5865 5865 5864 5864 5864 5863 5862 5862 5861 5861 5860 5859 5858 5857 5856 5855 5854 5853 5852 5851 5850 5848 5847 5846 5845 5843 5842 5841 5840 5839 5837 5836 5835 5834 5833 5831 5830 5829 5828 5826 5825 5824
5862 5862 5863 5863 5863 5863 5863 5863 5863 5862 5862 5862 5861 5860 5860 5859 5858 5857 5856 5855 5854 5853 5852 5851 5850 5849 5848 5846 5845 5844 5842 5841 5840 5838 5837 5836 5835 5833 5832 5830 5829 5828 5826 5825 5824 5822 5821 5820 5818
5858 5859 5860 5860 5860 5860 5860 5860 5860 5860 5859 5859 5859 5858 5857 5857 5856 5855 5854 5853 5852 5850 5849 5848 5847 5846 5844 5843 5841 5840 5838 5837 5836 5834 5833 5831 5830 5829 5827 5826 5824 5823 5821 5820 5819 5817 5816 5814 5813
5855 5855 5856 5857 5857 5857 5857 5857 5857 5857 5857 5856 5855 5855 5855 5854 5853 5852 5851 5850 5849 5847 5846 5845 5843 5842 5841 5839 5838 5836 5835 5833 5832 5830 5829 5827 5825 5824 5822 5821 5819 5818 5816 5815 5813 5812 5810 5808 5807
5851 5851 5852 5853 5853 5854 5854 5854 5854 5854 5853 5852 5852 5851 5851 5850 5850 5849 5847 5846 5845 5844 5843 5841 5840 5838 5837 5835 5834 5832 5831 5829 5827 5826 5824 5822 5821 5819 5817 5816 5814 5813 5811 5809 5808 5806 5804 5802 5801
5846 5847 5848 5848 5849 5850 5850 5850 5850 5850 5849 5849 5848 5848 5847 5846 5846 5845 5844 5842 5841 5840 5839 5837 5836 5834 5833 5831 5830 5828 5826 5825 5823 5821 5819 5818 5816 5814 5812 5811 5809 5807 5805 5803 5802 5800 5798 5796 5794
5841 5842 5843 5844 5845 5845 5846 5846 5846 5846 5845 5845 5844 5844 5843 5842 5841 5841 5840 5838 5837 5836 5835 5833 5831 5830 5828 5827 5825 5823 5822 5820 5818 5816 5814 5813 5811 5809 5807 5805 5803 5801 5799 5797 5795 5793 5791 5790 5788
5835 5837 5838 5840 5840 5840 5842 5842 5841 5841 5841 5840 5840 5839 5839 5838 5837 5836 5835 5834 5832 5831 5830 5828 5826 5825 5823 5822 5820 5818 5817 5815 5813 5811 5809 5807 5805 5803 5801 5799 5797 5795 5793 5791 5789 5787 5785 5783 5781
5830 5832 5832 5834 5834 5835 5836 5837 5835 5835 5836 5835 5835 5834 5834 5833 5832 5831 5830 5829 5828 5826 5825 5823 5822 5820 5818 5817 5815 5813 5812 5810 5808 5806 5804 5802 5800 5798 5795 5793 5791 5789 5787 5784 5782 5780 5778 5775 5773
5825 5826 5827 5828 5828 5829 5830 5831 5830 5830 5830 5830 5829 5829 5828 5828 5827 5826 5825 5824 5822 5821 5819 5818 5816 5814 5813 5811 5810 5808 5806 5804 5802 5800 5798 5796 5794 5792 5789 5787 5785 5782 5780 5777 5775 5772 5770 5767 5765
5819 5820 5821 5822 5822 5823 5824 5825 5825 5824 5824 5824 5824 5823 5823 5822 5822 5821 5819 5818 5817 5815 5814 5812 5811 5809 5807 5806 5804 5802 5800 5798 5796 5794 5792 5790 5788 5785 5783 5780 5778 5775 5773 5770 5767 5765 5762 5759 5756
5813 5815 5816 5817 5817 5818 5819 5819 5819 5819 5819 5818 5818 5818 5817 5816 5815 5815 5814 5812 5811 5809 5808 5806 5805 5803 5801 5800 5798 5796 5794 5792 5790 5788 5785 5783 5781 5778 5776 5773 5770 5768 5765 5762 5759 5756 5753 5750 5747
5808 5809 5811 5811 5811 5811 5812 5814 5814 5814 5813 5813 5812 5812 5811 5810 5809 5809 5807 5806 5805 5803 5801 5800 5799 5797 5795 5793 5791 5789 5788 5785 5783 5781 5779 5776 5773 5771 5768 5765 5763 5760 5757 5754 5750 5747 5744 5741 5737
5802 5804 5804 5805 5805 5806 5806 5806 5810 5808 5807 5807 5806 5806 5805 5804 5803 5802 5801 5800 5798 5797 5795 5793 5792 5790 5788 5786 5784 5783 5781 5779 5776 5774 5771 5769 5766 5763 5760 5757 5754 5751 5748 5745 5741 5738 5734 5731 5727
5796 5797 5798 5799 5798 5800 5800 5799 5803 5802 5802 5801 5800 5800 5799 5797 5796 5795 5794 5793 5791 5790 5788 5786 5785 5783 5781 5779 5777 5775 5773 5771 5769 5766 5764 5761 5758 5755 5752 5749 5746 5742 5739 5735 5732 5728 5724 5721 5717
5790 5791 5792 5792 5792 5793 5795 5794 5795 5796 5796 5795 5794 5793 5792 5791 5790 5788 5787 5786 5784 5783 5781 5779 5777 5776 5774 5772 5770 5768 5765 5763 5761 5758 5755 5753 5750 5746 5743 5740 5736 5733 5729 5726 5722 5718 5714 5710 5706
5783 5785 5786 5785 5785 5787 5788 5788 5790 5790 5789 5788 5787 5786 5785 5784 5783 5781 5780 5779 5777 5775 5773 5772 5770 5768 5766 5764 5762 5759 5757 5755 5752 5750 5747 5744 5741 5738 5734 5731 5727 5723 5720 5716 5711 5707 5703 5699 5694
5776 5778 5780 5780 5780 5780 5781 5781 5784 5783 5783 5782 5781 5779 5778 5777 5776 5775 5773 5771 5770 5768 5766 5764 5762 5760 5758 5756 5753 5751 5749 5746 5744 5741 5738 5735 5732 5728 5725 5721 5717 5713 5709 5705 5700 5696 5691 5687 5682
5770 5771 5773 5773 5773 5773 5774 5776 5776 5776 5776 5775 5774 5773 5772 5771 5769 5768 5766 5764 5762 5760 5758 5756 5754 5752 5749 5747 5745 5742 5740 5737 5735 5732 5729 5726 5722 5719 5715 5711 5707 5703 5698 5694 5689 5685 5680 5675 5669
5763 5765 5766 5765 5766 5766 5768 5769 5769 5768 5769 5768 5767 5766 5765 5764 5762 5760 5758 5756 5754 5752 5750 5748 5746 5743 5741 5738 5736 5733 5731 5728 5725 5722 5719 5716 5712 5708 5704 5700 5696 5692 5687 5682 5677 5672 5667 5662 5656
5756 5758 5758 5759 5759 5760 5760 5764 5762 5762 5761 5760 5759 5758 5757 5756 5754 5752 5750 5748 5746 5744 5741 5739 5737 5734 5732 5729 5727 5724 5721 5718 5716 5712 5709 5705 5702 5698 5693 5689 5685 5680 5675 5670 5665 5660 5654 5648 5642
5747 5750 5751 5752 5753 5753 5753 5758 5756 5755 5753 5752 5751 5750 5749 5748 5746 5744 5742 5740 5737 5735 5732 5730 5728 5725 5723 5720 5717 5715 5712 5709 5706 5702 5699 5695 5691 5687 5682 5678 5673 5668 5663 5657 5652 5646 5640 5634 5627